Location: Unspecified
(48.7670°N, 0.0000°E)
Time: 21:59:06
(UTC+00:00)

Courier 1B - Pass Details

Date: 23 June 2019
Orbit: 963 x 1209 km, 28.3° (Epoch: 18 July)

Event Time Altitude Azimuth Distance (km) Brightness Sun altitude
Rises 21:20:33 0° 241° (WSW) 3,953 10.8 -9.3°
Reaches altitude 10° 21:25:25 10° 214° (SW) 3,048 9.9 -9.8°
Maximum altitude 21:28:09 12° 192° (SSW) 2,904 9.6 -10.0°
Drops below altitude 10° 21:30:56 10° 171° (S) 3,097 9.6 -10.3°
Enters shadow 21:31:17 10° 168° (SSE) 3,142 9.6 -10.3°
Sets 21:36:00 0° 143° (SE) 4,089 - -10.8°
